Terug naar catalogus

CICERO-1

ActiefWetenschapSSO
NORAD 42843·PAYLOAD·🇺🇸 United States
Deze satellietnaam is nog niet bevestigd door officiële bronnen.

Gelanceerd Jul 14, 2017 vanaf Baikonur Cosmodrome

Loading…

Volgende Passages (komende 24 uur)

TLE

VersSource: Space-Track

Epoch: Sep 14, 2026, 03:45 UTC

1 42843U 17042U   26257.15662485  .00001493  00000-0  11943-3 0  9992
2 42843  97.4946  50.6422 0013371 130.4772 229.7621 15.01598550499976

Volg CICERO-1 in realtime met AllMySat

Download on the App Store